FW4421 Weather Reports


Display with metric or nautical units.
time (UTC)temp
F
wind
direction
speed
MPH
gust
MPH
rain 1hr
in
rain 24hr
in
rain mn
in
humidity
%
barometer
mb
20210304055209 48 346 3.0 4.0 0.00 0.01 0.00 62 1026.7
20210304054026 47 351 3.0 3.0 0.00 0.01 0.00 63 1026.7
20210304053023 45 27 4.0 4.0 0.00 0.01 0.00 65 1026.8
20210304052129 44 21 3.0 3.0 0.00 0.01 0.00 65 1026.8
20210304050026 44 13 3.0 4.0 0.00 0.01 0.00 66 1026.8
20210304045115 44 44 3.0 3.0 0.00 0.01 0.00 64 1026.9
20210304044026 45 3 2.0 3.0 0.00 0.01 0.00 61 1026.9
20210304043041 45 29 2.0 3.0 0.00 0.01 0.00 61 1026.9
20210304041019 45 18 3.0 3.0 0.00 0.01 0.00 58 1027.0
20210304040054 45 30 2.0 3.0 0.00 0.01 0.00 56 1027.0
20210304035416 45 37 2.0 2.0 0.00 0.01 0.00 53 1027.0
20210304034026 45 33 2.0 2.0 0.00 0.01 0.00 53 1027.1
20210304033245 45 3 3.0 3.0 0.00 0.01 0.00 52 1027.2
20210304032647 45 11 3.0 3.0 0.00 0.01 0.00 51 1027.2
20210304031021 45 19 3.0 4.0 0.00 0.01 0.00 51 1027.1
20210304030220 45 18 4.0 4.0 0.00 0.01 0.00 51 1027.2
20210304025200 46 16 3.0 4.0 0.00 0.01 0.00 48 1027.2
20210304024025 46 1 2.0 2.0 0.00 0.01 0.00 49 1027.2
20210304023121 46 11 3.0 3.0 0.00 0.01 0.00 48 1027.2
20210304022227 46 12 3.0 4.0 0.00 0.01 0.00 48 1027.3
20210304021020 46 10 2.0 3.0 0.00 0.01 0.00 48 1027.3
20210304020019 46 8 2.0 2.0 0.00 0.01 0.00 48 1027.4
20210304015715 47 10 2.0 3.0 0.00 0.01 0.00 49 1027.4
20210304014026 46 18 3.0 3.0 0.00 0.01 0.00 47 1027.5
20210304013034 47 28 3.0 3.0 0.00 0.01 0.00 48 1027.6
20210304012216 47 1 3.0 3.0 0.00 0.01 0.00 47 1027.7
20210304011057 47 358 3.0 3.0 0.00 0.01 0.00 46 1027.8
20210304010042 47 357 3.0 4.0 0.00 0.01 0.00 46 1028.0
20210304005230 47 15 4.0 4.0 0.00 0.01 0.00 47 1027.9
20210304004031 47 14 4.0 4.0 0.00 0.01 0.00 48 1028.0
20210304003024 47 14 4.0 5.0 0.00 0.01 0.00 51 1028.1
20210304002709 47 10 5.0 5.0 0.00 0.01 0.00 50 1028.2
20210304001044 47 18 4.0 4.0 0.00 0.01 0.00 47 1028.2
20210303235945 47 18 5.0 5.0 0.00 0.01 0.00 46 1028.2
20210303234032 48 12 5.0 5.0 0.00 0.01 0.00 46 1028.3
20210303233148 48 10 4.0 5.0 0.00 0.01 0.00 45 1028.3
20210303232357 48 2 5.0 5.0 0.00 0.01 0.00 45 1028.3
20210303231024 48 16 4.0 5.0 0.00 0.01 0.00 44 1028.3
20210303230023 48 10 4.0 5.0 0.00 0.01 0.00 46 1028.4
20210303225145 48 15 3.0 5.0 0.00 0.01 0.00 45 1028.5
20210303224031 48 10 3.0 3.0 0.00 0.01 0.00 44 1028.5
20210303223150 49 15 4.0 4.0 0.00 0.01 0.00 45 1028.6
20210303222407 49 357 3.0 4.0 0.00 0.01 0.00 44 1028.5
20210303221019 49 6 3.0 4.0 0.00 0.01 0.00 45 1028.6
20210303220044 49 11 3.0 4.0 0.00 0.01 0.00 43 1028.6
20210303215447 49 15 4.0 4.0 0.00 0.01 0.01 42 1028.7
20210303214028 49 354 4.0 5.0 0.00 0.01 0.01 42 1028.7
20210303213109 49 10 5.0 5.0 0.00 0.01 0.01 41 1028.8
20210303212403 50 6 3.0 4.0 0.00 0.01 0.01 40 1028.9
20210303211034 50 13 4.0 4.0 0.00 0.01 0.01 40 1028.8
20210303210139 50 4 5.0 5.0 0.00 0.01 0.01 39 1028.9
20210303205535 50 1 5.0 5.0 0.00 0.01 0.01 39 1028.9
20210303204024 50 8 4.0 5.0 0.00 0.01 0.01 38 1028.8
20210303203049 51 14 5.0 5.0 0.00 0.01 0.01 38 1028.9
20210303201031 51 358 5.0 5.0 0.00 0.01 0.01 37 1029.0
20210303200134 51 12 3.0 4.0 0.00 0.01 0.01 37 1029.0
20210303195238 51 12 4.0 5.0 0.00 0.01 0.01 37 1029.0
20210303194029 52 18 4.0 5.0 0.00 0.01 0.01 37 1028.9
20210303193221 52 3 3.0 4.0 0.00 0.01 0.01 37 1028.9
20210303192554 52 3 4.0 4.0 0.00 0.01 0.01 37 1028.9
20210303191019 52 12 4.0 5.0 0.00 0.01 0.01 36 1028.9
20210303190448 53 8 4.0 5.0 0.00 0.01 0.01 36 1029.0
20210303185949 53 5 3.0 4.0 0.00 0.01 0.01 36 1029.0
20210303183117 54 16 3.0 4.0 0.00 0.01 0.01 36 1029.0
20210303180326 57 10 3.0 4.0 0.00 0.01 0.01 38 1029.0
20210303174256 58 164 1.0 2.0 0.01 0.01 0.01 38 1029.2
20210303170216 57 173 3.0 4.0 0.01 0.01 0.01 38 1029.0
20210303165203 58 142 3.0 4.0 0.00 0.00 0.00 38 1029.0
20210303164259 58 210 3.0 4.0 0.00 0.00 0.00 37 1028.9
20210303163811 58 160 3.0 4.0 0.00 0.00 0.00 35 1028.7
20210303162902 59 206 3.0 5.0 0.00 0.00 0.00 35 1028.7
20210303161038 60 269 4.0 5.0 0.00 0.00 0.00 30 1028.6
20210303160427 61 207 4.0 5.0 0.00 0.00 0.00 29 1028.6
20210303155115 62 173 5.0 5.0 0.00 0.00 0.00 30 1028.6
20210303154032 63 85 4.0 5.0 0.00 0.00 0.00 28 1028.6
20210303153212 63 168 5.0 5.0 0.00 0.00 0.00 27 1028.7
20210303152424 64 245 5.0 6.0 0.00 0.00 0.00 26 1028.7
20210303151229 65 201 4.0 6.0 0.00 0.00 0.00 26 1028.7
20210303150032 64 202 5.0 6.0 0.00 0.00 0.00 26 1028.7
20210303145159 64 149 5.0 5.0 0.00 0.00 0.00 25 1028.8
20210303144028 65 178 5.0 5.0 0.00 0.00 0.00 26 1028.9
20210303142033 66 207 5.0 5.0 0.00 0.00 0.00 23 1029.0
20210303141035 65 131 5.0 7.0 0.00 0.00 0.00 24 1029.2
20210303140101 65 160 6.0 7.0 0.00 0.00 0.00 24 1029.2
20210303135251 65 157 7.0 7.0 0.00 0.00 0.00 26 1029.3
20210303134032 64 144 6.0 7.0 0.00 0.00 0.00 28 1029.4
20210303133515 65 157 6.0 7.0 0.00 0.00 0.00 25 1029.5
20210303132021 65 152 6.0 7.0 0.00 0.00 0.00 26 1029.6
20210303131033 67 220 4.0 5.0 0.00 0.00 0.00 25 1029.7
20210303130027 67 164 5.0 7.0 0.00 0.00 0.00 27 1029.7
20210303125054 66 129 5.0 7.0 0.00 0.00 0.00 26 1029.7
20210303124321 69 241 5.0 5.0 0.00 0.00 0.00 26 1029.8
20210303123452 69 261 5.0 5.0 0.00 0.00 0.00 22 1029.8
20210303121021 69 185 4.0 4.0 0.00 0.00 0.00 23 1030.0
20210303120021 68 255 4.0 6.0 0.00 0.00 0.00 23 1030.1
20210303115039 69 197 4.0 5.0 0.00 0.00 0.00 23 1030.2
20210303114251 68 253 5.0 5.0 0.00 0.00 0.00 22 1030.3
20210303113546 68 351 4.0 5.0 0.00 0.00 0.00 22 1030.5
20210303112021 68 253 5.0 6.0 0.00 0.00 0.00 24 1030.6
20210303111027 67 279 5.0 6.0 0.00 0.00 0.00 24 1030.7
20210303110019 66 269 6.0 6.0 0.00 0.00 0.00 26 1030.8
20210303105035 68 283 5.0 6.0 0.00 0.00 0.00 26 1031.0
20210303103538 66 48 3.0 4.0 0.00 0.00 0.00 26 1031.1
20210303102021 68 225 4.0 4.0 0.00 0.00 0.00 27 1031.4
20210303100040 64 30 4.0 5.0 0.00 0.00 0.00 28 1031.4
20210303095027 64 357 3.0 5.0 0.00 0.00 0.00 27 1031.5
20210303094025 65 312 4.0 4.0 0.00 0.00 0.00 28 1031.6
20210303093416 64 314 3.0 4.0 0.00 0.00 0.00 28 1031.6
20210303092031 63 340 3.0 4.0 0.00 0.00 0.00 29 1031.7
20210303091035 63 326 3.0 3.0 0.00 0.00 0.00 28 1031.7
20210303090024 63 289 3.0 3.0 0.00 0.00 0.00 29 1031.8
20210303085048 62 276 4.0 5.0 0.00 0.00 0.00 30 1031.8
20210303084045 61 270 4.0 5.0 0.00 0.00 0.00 30 1031.8
20210303083604 63 260 3.0 4.0 0.00 0.00 0.00 32 1031.8
20210303082119 62 29 2.0 2.0 0.00 0.00 0.00 33 1031.9
20210303081032 61 4 3.0 3.0 0.00 0.00 0.00 32 1031.9
20210303080028 61 295 3.0 4.0 0.00 0.00 0.00 34 1031.9
20210303075035 61 315 2.0 3.0 0.00 0.00 0.00 36 1031.9
20210303074030 59 269 3.0 4.0 0.00 0.00 0.00 36 1032.0
20210303073556 57 258 4.0 5.0 0.00 0.00 0.00 35 1032.0
20210303072025 56 270 5.0 5.0 0.00 0.00 0.00 36 1032.1
20210303071028 57 271 2.0 3.0 0.00 0.00 0.00 39 1032.0
20210303070029 56 263 3.0 3.0 0.00 0.00 0.00 40 1032.0
20210303064022 54 268 3.0 4.0 0.00 0.00 0.00 42 1031.9
20210303063527 53 268 2.0 2.0 0.00 0.00 0.00 43 1031.8